contact:dominique.lefevre@mio.osupytheas.fr, maurice.libes@osupytheas.fr, didier.mallarino@osupytheas.fr
Project:EMSO http://www.emso-fr.org/EMSO-France
Depth: 2436.0 m
Title:EMSO Ligure Ouest : Data MII capteur MICROCAT
DateTime_Computer,Latitude,Longitude,Temperature,Conductivity,Pressure,DateTime_Instrument
DateTime_Computer,Latitude,Longitude,degC,S m-1,dbar,DateTime_Instrument
2022-12-14T09:18:09Z,42.805,6.029,13.3009,4.60125,2470.707,2022-12-14T11:23:58Z
2022-12-14T09:21:12Z,42.805,6.029,13.3017,4.60097,2470.707,2022-12-14T11:27:01Z
2022-12-14T09:24:15Z,42.805,6.029,13.3013,4.60106,2470.646,2022-12-14T11:30:04Z
2022-12-14T09:27:18Z,42.805,6.029,13.3009,4.60107,2470.67,2022-12-14T11:33:08Z
2022-12-14T09:30:21Z,42.805,6.029,13.3011,4.60096,2470.656,2022-12-14T11:36:11Z
2022-12-14T09:33:24Z,42.805,6.029,13.3012,4.60099,2470.67,2022-12-14T11:39:14Z
2022-12-14T09:36:27Z,42.805,6.029,13.3015,4.60092,2470.67,2022-12-14T11:42:17Z
2022-12-14T09:39:30Z,42.805,6.029,13.3014,4.60097,2470.684,2022-12-14T11:45:20Z
2022-12-14T09:42:33Z,42.805,6.029,13.3011,4.60098,2470.67,2022-12-14T11:48:23Z
2022-12-14T09:45:36Z,42.805,6.029,13.3009,4.60098,2470.693,2022-12-14T11:51:26Z
2022-12-14T09:48:39Z,42.805,6.029,13.3012,4.60089,2470.693,2022-12-14T11:54:29Z
2022-12-14T09:51:43Z,42.805,6.029,13.3013,4.60095,2470.67,2022-12-14T11:57:32Z
2022-12-14T09:54:46Z,42.805,6.029,13.3012,4.60087,2470.684,2022-12-14T12:00:35Z
2022-12-14T09:57:49Z,42.805,6.029,13.3012,4.60090,2470.707,2022-12-14T12:03:39Z
2022-12-14T10:00:52Z,42.805,6.029,13.3014,4.60089,2470.73,2022-12-14T12:06:42Z
2022-12-14T10:03:55Z,42.805,6.029,13.3014,4.60093,2470.74,2022-12-14T12:09:45Z
2022-12-14T10:06:58Z,42.805,6.029,13.3013,4.60090,2470.717,2022-12-14T12:12:48Z
2022-12-14T10:10:01Z,42.805,6.029,13.3010,4.60086,2470.717,2022-12-14T12:15:51Z
2022-12-14T10:13:04Z,42.805,6.029,13.3014,4.60094,2470.754,2022-12-14T12:18:54Z
2022-12-14T10:16:07Z,42.805,6.029,13.3011,4.60088,2470.73,2022-12-14T12:21:57Z
2022-12-14T10:19:10Z,42.805,6.029,13.3013,4.60085,2470.707,2022-12-14T12:25:00Z
2022-12-14T10:22:13Z,42.805,6.029,13.3015,4.60087,2470.717,2022-12-14T12:28:03Z
2022-12-14T10:25:17Z,42.805,6.029,13.3012,4.60084,2470.74,2022-12-14T12:31:06Z
2022-12-14T10:28:20Z,42.805,6.029,13.3014,4.60088,2470.717,2022-12-14T12:34:09Z
2022-12-14T10:31:23Z,42.805,6.029,13.3012,4.60084,2470.73,2022-12-14T12:37:12Z
2022-12-14T10:34:26Z,42.805,6.029,13.3015,4.60092,2470.73,2022-12-14T12:40:16Z
2022-12-14T10:37:29Z,42.805,6.029,13.3011,4.60079,2470.693,2022-12-14T12:43:19Z
2022-12-14T10:40:32Z,42.805,6.029,13.3013,4.60072,2470.717,2022-12-14T12:46:22Z
2022-12-14T10:43:35Z,42.805,6.029,13.3013,4.60073,2470.707,2022-12-14T12:49:25Z
2022-12-14T10:46:38Z,42.805,6.029,13.3012,4.60074,2470.717,2022-12-14T12:52:28Z
2022-12-14T10:49:41Z,42.805,6.029,13.3011,4.60069,2470.693,2022-12-14T12:55:31Z
2022-12-14T10:52:44Z,42.805,6.029,13.3014,4.60071,2470.73,2022-12-14T12:58:34Z
2022-12-14T10:55:47Z,42.805,6.029,13.3009,4.60074,2470.693,2022-12-14T13:01:37Z
2022-12-14T10:58:51Z,42.805,6.029,13.3011,4.60080,2470.73,2022-12-14T13:04:40Z
2022-12-14T11:01:54Z,42.805,6.029,13.3010,4.60077,2470.73,2022-12-14T13:07:43Z
2022-12-14T11:04:57Z,42.805,6.029,13.3015,4.60075,2470.717,2022-12-14T13:10:47Z
2022-12-14T11:08:00Z,42.805,6.029,13.3015,4.60072,2470.707,2022-12-14T13:13:50Z
2022-12-14T11:11:03Z,42.805,6.029,13.3011,4.60075,2470.717,2022-12-14T13:16:53Z
2022-12-14T11:14:06Z,42.805,6.029,13.3013,4.60071,2470.693,2022-12-14T13:19:56Z
2022-12-14T11:17:09Z,42.805,6.029,13.3010,4.60074,2470.717,2022-12-14T13:22:59Z
2022-12-14T11:20:12Z,42.805,6.029,13.3011,4.60072,2470.693,2022-12-14T13:26:02Z
2022-12-14T11:23:15Z,42.805,6.029,13.3011,4.60077,2470.717,2022-12-14T13:29:05Z
2022-12-14T11:26:18Z,42.805,6.029,13.3009,4.60076,2470.754,2022-12-14T13:32:08Z
2022-12-14T11:29:21Z,42.805,6.029,13.3013,4.60072,2470.693,2022-12-14T13:35:11Z
2022-12-14T11:32:25Z,42.805,6.029,13.3014,4.60073,2470.73,2022-12-14T13:38:14Z
2022-12-14T11:35:28Z,42.805,6.029,13.3012,4.60072,2470.707,2022-12-14T13:41:17Z
2022-12-14T11:38:31Z,42.805,6.029,13.3009,4.60076,2470.717,2022-12-14T13:44:21Z
2022-12-14T11:41:34Z,42.805,6.029,13.3011,4.60075,2470.693,2022-12-14T13:47:24Z
2022-12-14T11:44:37Z,42.805,6.029,13.3014,4.60075,2470.73,2022-12-14T13:50:27Z
2022-12-14T11:47:40Z,42.805,6.029,13.3012,4.60075,2470.67,2022-12-14T13:53:30Z
2022-12-14T11:50:43Z,42.805,6.029,13.3011,4.60073,2470.693,2022-12-14T13:56:33Z
2022-12-14T11:53:46Z,42.805,6.029,13.3015,4.60072,2470.693,2022-12-14T13:59:36Z
2022-12-14T11:56:49Z,42.805,6.029,13.3014,4.60070,2470.693,2022-12-14T14:02:39Z
2022-12-14T11:59:52Z,42.805,6.029,13.3009,4.60072,2470.693,2022-12-14T14:05:42Z
2022-12-14T12:02:55Z,42.805,6.029,13.3011,4.60074,2470.693,2022-12-14T14:08:45Z
2022-12-14T12:05:59Z,42.805,6.029,13.3009,4.60077,2470.707,2022-12-14T14:11:48Z
2022-12-14T12:09:02Z,42.805,6.029,13.3012,4.60075,2470.67,2022-12-14T14:14:51Z
2022-12-14T12:12:05Z,42.805,6.029,13.3013,4.60074,2470.717,2022-12-14T14:17:55Z
2022-12-14T12:15:08Z,42.805,6.029,13.3014,4.60072,2470.693,2022-12-14T14:20:58Z
2022-12-14T12:18:11Z,42.805,6.029,13.3017,4.60072,2470.717,2022-12-14T14:24:01Z
2022-12-14T12:21:14Z,42.805,6.029,13.3011,4.60074,2470.693,2022-12-14T14:27:04Z
2022-12-14T12:24:17Z,42.805,6.029,13.3012,4.60070,2470.707,2022-12-14T14:30:07Z
2022-12-14T12:27:20Z,42.805,6.029,13.3014,4.60072,2470.693,2022-12-14T14:33:10Z
2022-12-14T12:30:23Z,42.805,6.029,13.3016,4.60072,2470.707,2022-12-14T14:36:13Z
2022-12-14T12:33:26Z,42.805,6.029,13.3014,4.60073,2470.707,2022-12-14T14:39:16Z
2022-12-14T12:36:29Z,42.805,6.029,13.3011,4.60071,2470.693,2022-12-14T14:42:19Z
2022-12-14T12:39:33Z,42.805,6.029,13.3015,4.60069,2470.67,2022-12-14T14:45:22Z
2022-12-14T12:42:36Z,42.805,6.029,13.3014,4.60072,2470.707,2022-12-14T14:48:26Z
2022-12-14T12:45:39Z,42.805,6.029,13.3014,4.60072,2470.717,2022-12-14T14:51:29Z
2022-12-14T12:48:42Z,42.805,6.029,13.3015,4.60069,2470.684,2022-12-14T14:54:32Z
2022-12-14T12:51:45Z,42.805,6.029,13.3011,4.60072,2470.73,2022-12-14T14:57:35Z
2022-12-14T12:54:48Z,42.805,6.029,13.3014,4.60070,2470.693,2022-12-14T15:00:38Z
2022-12-14T12:57:51Z,42.805,6.029,13.3009,4.60069,2470.707,2022-12-14T15:03:41Z
2022-12-14T13:00:54Z,42.805,6.029,13.3014,4.60069,2470.717,2022-12-14T15:06:44Z
2022-12-14T13:03:57Z,42.805,6.029,13.3014,4.60074,2470.693,2022-12-14T15:09:47Z
2022-12-14T13:07:00Z,42.805,6.029,13.3014,4.60076,2470.67,2022-12-14T15:12:50Z
2022-12-14T13:10:04Z,42.805,6.029,13.3014,4.60071,2470.646,2022-12-14T15:15:53Z
2022-12-14T13:13:07Z,42.805,6.029,13.3012,4.60069,2470.684,2022-12-14T15:18:57Z
2022-12-14T13:16:10Z,42.805,6.029,13.3010,4.60071,2470.67,2022-12-14T15:22:00Z
2022-12-14T13:19:13Z,42.805,6.029,13.3009,4.60069,2470.684,2022-12-14T15:25:03Z
2022-12-14T13:22:16Z,42.805,6.029,13.3011,4.60067,2470.693,2022-12-14T15:28:06Z
2022-12-14T13:25:19Z,42.805,6.029,13.3005,4.60070,2470.693,2022-12-14T15:31:09Z
2022-12-14T13:28:22Z,42.805,6.029,13.3011,4.60070,2470.684,2022-12-14T15:34:12Z
2022-12-14T13:31:25Z,42.805,6.029,13.3014,4.60067,2470.624,2022-12-14T15:37:15Z
2022-12-14T13:34:28Z,42.805,6.029,13.3012,4.60070,2470.707,2022-12-14T15:40:18Z
2022-12-14T13:37:31Z,42.805,6.029,13.3014,4.60068,2470.684,2022-12-14T15:43:21Z
2022-12-14T13:40:34Z,42.805,6.029,13.3009,4.60067,2470.67,2022-12-14T15:46:24Z
2022-12-14T13:43:38Z,42.805,6.029,13.3012,4.60067,2470.646,2022-12-14T15:49:27Z
2022-12-14T13:46:41Z,42.805,6.029,13.3014,4.60067,2470.67,2022-12-14T15:52:31Z
2022-12-14T13:49:44Z,42.805,6.029,13.3012,4.60066,2470.684,2022-12-14T15:55:34Z
2022-12-14T13:52:47Z,42.805,6.029,13.3010,4.60068,2470.67,2022-12-14T15:58:37Z
2022-12-14T13:55:50Z,42.805,6.029,13.3013,4.60070,2470.67,2022-12-14T16:01:40Z
2022-12-14T13:58:53Z,42.805,6.029,13.3011,4.60072,2470.646,2022-12-14T16:04:43Z
2022-12-14T14:01:56Z,42.805,6.029,13.3014,4.60069,2470.67,2022-12-14T16:07:46Z
2022-12-14T14:04:59Z,42.805,6.029,13.3010,4.60068,2470.67,2022-12-14T16:10:49Z
2022-12-14T14:08:02Z,42.805,6.029,13.3011,4.60067,2470.633,2022-12-14T16:13:52Z
2022-12-14T14:11:05Z,42.805,6.029,13.3014,4.60068,2470.684,2022-12-14T16:16:55Z
2022-12-14T14:14:08Z,42.805,6.029,13.3015,4.60067,2470.661,2022-12-14T16:19:58Z
2022-12-14T14:17:12Z,42.805,6.029,13.3014,4.60067,2470.684,2022-12-14T16:23:01Z
2022-12-14T14:20:15Z,42.805,6.029,13.3014,4.60069,2470.67,2022-12-14T16:26:05Z
2022-12-14T14:23:18Z,42.805,6.029,13.3012,4.60067,2470.646,2022-12-14T16:29:08Z
2022-12-14T14:26:21Z,42.805,6.029,13.3015,4.60067,2470.661,2022-12-14T16:32:11Z
2022-12-14T14:29:24Z,42.805,6.029,13.3010,4.60066,2470.661,2022-12-14T16:35:14Z
2022-12-14T14:32:27Z,42.805,6.029,13.3015,4.60067,2470.661,2022-12-14T16:38:17Z
2022-12-14T14:35:30Z,42.805,6.029,13.3014,4.60068,2470.646,2022-12-14T16:41:20Z
2022-12-14T14:38:33Z,42.805,6.029,13.3011,4.60069,2470.67,2022-12-14T16:44:23Z
2022-12-14T14:41:36Z,42.805,6.029,13.3015,4.60069,2470.646,2022-12-14T16:47:26Z
2022-12-14T14:44:39Z,42.805,6.029,13.3014,4.60069,2470.67,2022-12-14T16:50:29Z
2022-12-14T14:47:42Z,42.805,6.029,13.3011,4.60067,2470.637,2022-12-14T16:53:32Z
2022-12-14T14:50:46Z,42.805,6.029,13.3013,4.60072,2470.646,2022-12-14T16:56:36Z
2022-12-14T14:53:49Z,42.805,6.029,13.3014,4.60064,2470.646,2022-12-14T16:59:39Z
2022-12-14T14:56:52Z,42.805,6.029,13.3015,4.60067,2470.661,2022-12-14T17:02:42Z
2022-12-14T14:59:55Z,42.805,6.029,13.3015,4.60067,2470.646,2022-12-14T17:05:45Z
2022-12-14T15:02:58Z,42.805,6.029,13.3011,4.60067,2470.6,2022-12-14T17:08:48Z
2022-12-14T15:06:01Z,42.805,6.029,13.3011,4.60068,2470.646,2022-12-14T17:11:51Z
2022-12-14T15:09:04Z,42.805,6.029,13.3013,4.60069,2470.6,2022-12-14T17:14:54Z
2022-12-14T15:12:07Z,42.805,6.029,13.3013,4.60069,2470.637,2022-12-14T17:17:57Z
2022-12-14T15:15:10Z,42.805,6.029,13.3011,4.60067,2470.624,2022-12-14T17:21:00Z
2022-12-14T15:18:13Z,42.805,6.029,13.3013,4.60066,2470.661,2022-12-14T17:24:03Z
2022-12-14T15:21:16Z,42.805,6.029,13.3011,4.60064,2470.624,2022-12-14T17:27:06Z
2022-12-14T15:24:20Z,42.805,6.029,13.3009,4.60064,2470.646,2022-12-14T17:30:09Z
2022-12-14T15:27:23Z,42.805,6.029,13.3009,4.60064,2470.661,2022-12-14T17:33:13Z
2022-12-14T15:30:26Z,42.805,6.029,13.3011,4.60064,2470.661,2022-12-14T17:36:16Z
2022-12-14T15:33:29Z,42.805,6.029,13.3011,4.60064,2470.624,2022-12-14T17:39:19Z
2022-12-14T15:36:32Z,42.805,6.029,13.3007,4.60065,2470.637,2022-12-14T17:42:22Z
2022-12-14T15:39:35Z,42.805,6.029,13.3011,4.60067,2470.624,2022-12-14T17:45:25Z
2022-12-14T15:42:38Z,42.805,6.029,13.3015,4.60064,2470.614,2022-12-14T17:48:28Z
2022-12-14T15:45:41Z,42.805,6.029,13.3013,4.60064,2470.624,2022-12-14T17:51:31Z
2022-12-14T15:48:44Z,42.805,6.029,13.3011,4.60062,2470.6,2022-12-14T17:54:34Z
2022-12-14T15:51:47Z,42.805,6.029,13.3010,4.60063,2470.614,2022-12-14T17:57:37Z
2022-12-14T15:54:50Z,42.805,6.029,13.3011,4.60064,2470.6,2022-12-14T18:00:40Z
2022-12-14T15:57:53Z,42.805,6.029,13.3012,4.60064,2470.614,2022-12-14T18:03:43Z
2022-12-14T16:00:57Z,42.805,6.029,13.3015,4.60065,2470.614,2022-12-14T18:06:47Z
2022-12-14T16:04:00Z,42.805,6.029,13.3014,4.60063,2470.637,2022-12-14T18:09:50Z
2022-12-14T16:07:03Z,42.805,6.029,13.3018,4.60067,2470.6,2022-12-14T18:12:53Z
2022-12-14T16:10:06Z,42.805,6.029,13.3014,4.60067,2470.577,2022-12-14T18:15:56Z
2022-12-14T16:13:09Z,42.805,6.029,13.3012,4.60064,2470.553,2022-12-14T18:18:59Z
2022-12-14T16:16:12Z,42.805,6.029,13.3014,4.60067,2470.577,2022-12-14T18:22:02Z
2022-12-14T16:19:15Z,42.805,6.029,13.3010,4.60066,2470.577,2022-12-14T18:25:05Z
2022-12-14T16:22:18Z,42.805,6.029,13.3011,4.60067,2470.6,2022-12-14T18:28:08Z
2022-12-14T16:25:21Z,42.805,6.029,13.3014,4.60063,2470.614,2022-12-14T18:31:11Z
2022-12-14T16:28:24Z,42.805,6.029,13.3011,4.60064,2470.567,2022-12-14T18:34:14Z
2022-12-14T16:31:28Z,42.805,6.029,13.3013,4.60064,2470.577,2022-12-14T18:37:18Z
2022-12-14T16:34:31Z,42.805,6.029,13.3014,4.60067,2470.544,2022-12-14T18:40:21Z
2022-12-14T16:37:34Z,42.805,6.029,13.3014,4.60064,2470.614,2022-12-14T18:43:24Z
2022-12-14T16:40:37Z,42.805,6.029,13.3019,4.60064,2470.553,2022-12-14T18:46:27Z
2022-12-14T16:43:40Z,42.805,6.029,13.3015,4.60064,2470.553,2022-12-14T18:49:30Z
2022-12-14T16:46:43Z,42.805,6.029,13.3014,4.60067,2470.591,2022-12-14T18:52:33Z
2022-12-14T16:49:46Z,42.805,6.029,13.3014,4.60066,2470.577,2022-12-14T18:55:36Z
2022-12-14T16:52:49Z,42.805,6.029,13.3012,4.60062,2470.567,2022-12-14T18:58:39Z
2022-12-14T16:55:52Z,42.805,6.029,13.3013,4.60062,2470.577,2022-12-14T19:01:42Z
2022-12-14T16:58:55Z,42.805,6.029,13.3013,4.60064,2470.577,2022-12-14T19:04:45Z
2022-12-14T17:01:58Z,42.805,6.029,13.3015,4.60062,2470.567,2022-12-14T19:07:48Z
2022-12-14T17:05:02Z,42.805,6.029,13.3011,4.60062,2470.553,2022-12-14T19:10:52Z
2022-12-14T17:08:05Z,42.805,6.029,13.3016,4.60061,2470.53,2022-12-14T19:13:55Z
2022-12-14T17:11:08Z,42.805,6.029,13.3011,4.60063,2470.553,2022-12-14T19:16:58Z
2022-12-14T17:14:11Z,42.805,6.029,13.3009,4.60065,2470.591,2022-12-14T19:20:01Z
2022-12-14T17:17:14Z,42.805,6.029,13.3015,4.60065,2470.553,2022-12-14T19:23:04Z
2022-12-14T17:20:17Z,42.805,6.029,13.3010,4.60064,2470.567,2022-12-14T19:26:07Z
2022-12-14T17:23:20Z,42.805,6.029,13.3010,4.60064,2470.591,2022-12-14T19:29:10Z
2022-12-14T17:26:23Z,42.805,6.029,13.3016,4.60062,2470.577,2022-12-14T19:32:13Z
2022-12-14T17:29:26Z,42.805,6.029,13.3014,4.60061,2470.553,2022-12-14T19:35:16Z
2022-12-14T17:32:29Z,42.805,6.029,13.3015,4.60061,2470.53,2022-12-14T19:38:19Z
2022-12-14T17:35:32Z,42.805,6.029,13.3011,4.60062,2470.553,2022-12-14T19:41:22Z
2022-12-14T17:38:36Z,42.805,6.029,13.3008,4.60064,2470.567,2022-12-14T19:44:26Z
2022-12-14T17:41:39Z,42.805,6.029,13.3009,4.60060,2470.6,2022-12-14T19:47:29Z
2022-12-14T17:44:42Z,42.805,6.029,13.3013,4.60061,2470.577,2022-12-14T19:50:32Z
2022-12-14T17:47:45Z,42.805,6.029,13.3014,4.60060,2470.553,2022-12-14T19:53:35Z
2022-12-14T17:50:48Z,42.805,6.029,13.3010,4.60061,2470.539,2022-12-14T19:56:38Z
2022-12-14T17:53:51Z,42.805,6.029,13.3011,4.60063,2470.567,2022-12-14T19:59:41Z
2022-12-14T17:56:54Z,42.805,6.029,13.3010,4.60062,2470.553,2022-12-14T20:02:44Z
2022-12-14T17:59:57Z,42.805,6.029,13.3011,4.60063,2470.567,2022-12-14T20:05:47Z
2022-12-14T18:03:00Z,42.805,6.029,13.3011,4.60064,2470.53,2022-12-14T20:08:50Z
2022-12-14T18:06:03Z,42.805,6.029,13.3012,4.60063,2470.544,2022-12-14T20:11:53Z
2022-12-14T18:09:06Z,42.805,6.029,13.3015,4.60066,2470.53,2022-12-14T20:14:56Z
2022-12-14T18:12:10Z,42.805,6.029,13.3011,4.60060,2470.544,2022-12-14T20:18:00Z
2022-12-14T18:15:13Z,42.805,6.029,13.3006,4.60060,2470.567,2022-12-14T20:21:03Z
2022-12-14T18:18:16Z,42.805,6.029,13.3012,4.60061,2470.544,2022-12-14T20:24:06Z
2022-12-14T18:21:19Z,42.805,6.029,13.3009,4.60062,2470.553,2022-12-14T20:27:09Z
2022-12-14T18:24:22Z,42.805,6.029,13.3010,4.60060,2470.577,2022-12-14T20:30:12Z
2022-12-14T18:27:25Z,42.805,6.029,13.3013,4.60060,2470.53,2022-12-14T20:33:15Z
2022-12-14T18:30:28Z,42.805,6.029,13.3011,4.60062,2470.591,2022-12-14T20:36:18Z
2022-12-14T18:33:31Z,42.805,6.029,13.3007,4.60060,2470.553,2022-12-14T20:39:21Z
2022-12-14T18:36:34Z,42.805,6.029,13.3009,4.60066,2470.53,2022-12-14T20:42:24Z
2022-12-14T18:39:37Z,42.805,6.029,13.3007,4.60059,2470.553,2022-12-14T20:45:27Z
2022-12-14T18:42:40Z,42.805,6.029,13.3011,4.60062,2470.553,2022-12-14T20:48:30Z
2022-12-14T18:45:43Z,42.805,6.029,13.3006,4.60064,2470.553,2022-12-14T20:51:34Z
2022-12-14T18:48:47Z,42.805,6.029,13.3009,4.60062,2470.567,2022-12-14T20:54:37Z
2022-12-14T18:51:50Z,42.805,6.029,13.3009,4.60062,2470.553,2022-12-14T20:57:40Z
2022-12-14T18:54:53Z,42.805,6.029,13.3012,4.60060,2470.553,2022-12-14T21:00:43Z
2022-12-14T18:57:56Z,42.805,6.029,13.3009,4.60062,2470.553,2022-12-14T21:03:46Z
2022-12-14T19:00:59Z,42.805,6.029,13.3011,4.60063,2470.553,2022-12-14T21:06:49Z
2022-12-14T19:04:02Z,42.805,6.029,13.3011,4.60063,2470.53,2022-12-14T21:09:52Z
2022-12-14T19:07:05Z,42.805,6.029,13.3009,4.60071,2470.553,2022-12-14T21:12:55Z
2022-12-14T19:10:08Z,42.805,6.029,13.3009,4.60067,2470.544,2022-12-14T21:15:58Z
2022-12-14T19:13:11Z,42.805,6.029,13.3014,4.60063,2470.553,2022-12-14T21:19:01Z
2022-12-14T19:16:14Z,42.805,6.029,13.3011,4.60064,2470.577,2022-12-14T21:22:04Z
2022-12-14T19:19:17Z,42.805,6.029,13.3010,4.60081,2470.577,2022-12-14T21:25:08Z
2022-12-14T19:22:21Z,42.805,6.029,13.3009,4.60064,2470.553,2022-12-14T21:28:11Z
2022-12-14T19:25:24Z,42.805,6.029,13.3012,4.60064,2470.53,2022-12-14T21:31:14Z
2022-12-14T19:28:27Z,42.805,6.029,13.3013,4.60062,2470.53,2022-12-14T21:34:17Z
2022-12-14T19:31:30Z,42.805,6.029,13.3010,4.60081,2470.553,2022-12-14T21:37:20Z
2022-12-14T19:34:33Z,42.805,6.029,13.3009,4.60067,2470.577,2022-12-14T21:40:23Z
2022-12-14T19:37:36Z,42.805,6.029,13.3012,4.60073,2470.577,2022-12-14T21:43:26Z
2022-12-14T19:40:39Z,42.805,6.029,13.3007,4.60097,2470.53,2022-12-14T21:46:29Z
2022-12-14T19:43:42Z,42.805,6.029,13.3009,4.60088,2470.544,2022-12-14T21:49:32Z
2022-12-14T19:46:45Z,42.805,6.029,13.3009,4.60064,2470.567,2022-12-14T21:52:35Z
2022-12-14T19:49:48Z,42.805,6.029,13.3011,4.60067,2470.493,2022-12-14T21:55:39Z
2022-12-14T19:52:51Z,42.805,6.029,13.3010,4.60069,2470.567,2022-12-14T21:58:42Z
2022-12-14T19:55:55Z,42.805,6.029,13.3011,4.60067,2470.53,2022-12-14T22:01:45Z
2022-12-14T19:58:58Z,42.805,6.029,13.3011,4.60067,2470.544,2022-12-14T22:04:48Z
2022-12-14T20:02:01Z,42.805,6.029,13.3011,4.60103,2470.53,2022-12-14T22:07:51Z
2022-12-14T20:05:04Z,42.805,6.029,13.3014,4.60094,2470.567,2022-12-14T22:10:54Z
2022-12-14T20:08:07Z,42.805,6.029,13.3011,4.60097,2470.577,2022-12-14T22:13:57Z
2022-12-14T20:11:10Z,42.805,6.029,13.3012,4.60074,2470.553,2022-12-14T22:17:00Z
2022-12-14T20:14:13Z,42.805,6.029,13.3011,4.60068,2470.553,2022-12-14T22:20:03Z
2022-12-14T20:17:16Z,42.805,6.029,13.3011,4.60076,2470.553,2022-12-14T22:23:06Z
2022-12-14T20:20:19Z,42.805,6.029,13.3009,4.60064,2470.567,2022-12-14T22:26:09Z
2022-12-14T20:23:22Z,42.805,6.029,13.3009,4.60069,2470.553,2022-12-14T22:29:13Z
2022-12-14T20:26:25Z,42.805,6.029,13.3014,4.60079,2470.553,2022-12-14T22:32:16Z
2022-12-14T20:29:29Z,42.805,6.029,13.3012,4.60079,2470.544,2022-12-14T22:35:19Z
2022-12-14T20:32:32Z,42.805,6.029,13.3014,4.60110,2470.544,2022-12-14T22:38:22Z
2022-12-14T20:35:35Z,42.805,6.029,13.3033,4.60119,2470.553,2022-12-14T22:41:25Z
2022-12-14T20:38:38Z,42.805,6.029,13.3012,4.60093,2470.553,2022-12-14T22:44:28Z
2022-12-14T20:41:41Z,42.805,6.029,13.3013,4.60115,2470.567,2022-12-14T22:47:31Z
2022-12-14T20:44:44Z,42.805,6.029,13.3014,4.60119,2470.553,2022-12-14T22:50:34Z
2022-12-14T20:47:47Z,42.805,6.029,13.3018,4.60106,2470.591,2022-12-14T22:53:37Z
2022-12-14T20:50:50Z,42.805,6.029,13.3022,4.60103,2470.553,2022-12-14T22:56:40Z
2022-12-14T20:53:53Z,42.805,6.029,13.3015,4.60110,2470.6,2022-12-14T22:59:43Z
2022-12-14T20:56:56Z,42.805,6.029,13.3019,4.60132,2470.53,2022-12-14T23:02:47Z
2022-12-14T20:59:59Z,42.805,6.029,13.3020,4.60135,2470.567,2022-12-14T23:05:50Z
2022-12-14T21:03:03Z,42.805,6.029,13.3026,4.60117,2470.553,2022-12-14T23:08:53Z
2022-12-14T21:06:06Z,42.805,6.029,13.3034,4.60122,2470.553,2022-12-14T23:11:56Z
2022-12-14T21:09:09Z,42.805,6.029,13.3039,4.60131,2470.577,2022-12-14T23:14:59Z
2022-12-14T21:12:12Z,42.805,6.029,13.3052,4.60160,2470.591,2022-12-14T23:18:02Z
2022-12-14T21:15:15Z,42.805,6.029,13.3083,4.60119,2470.567,2022-12-14T23:21:05Z
2022-12-14T21:18:18Z,42.805,6.029,13.3063,4.60107,2470.553,2022-12-14T23:24:08Z
2022-12-14T21:21:21Z,42.805,6.029,13.3040,4.60134,2470.553,2022-12-14T23:27:11Z
2022-12-14T21:24:24Z,42.805,6.029,13.3026,4.60137,2470.553,2022-12-14T23:30:14Z
2022-12-14T21:27:27Z,42.805,6.029,13.3044,4.60173,2470.577,2022-12-14T23:33:17Z
2022-12-14T21:30:30Z,42.805,6.029,13.3026,4.60190,2470.544,2022-12-14T23:36:21Z
2022-12-14T21:33:33Z,42.805,6.029,13.3016,4.60185,2470.544,2022-12-14T23:39:24Z
2022-12-14T21:36:37Z,42.805,6.029,13.3022,4.60174,2470.567,2022-12-14T23:42:27Z
2022-12-14T21:39:40Z,42.805,6.029,13.3022,4.60150,2470.553,2022-12-14T23:45:30Z
2022-12-14T21:42:43Z,42.805,6.029,13.3018,4.60174,2470.591,2022-12-14T23:48:33Z
2022-12-14T21:45:46Z,42.805,6.029,13.3015,4.60134,2470.553,2022-12-14T23:51:36Z
2022-12-14T21:48:49Z,42.805,6.029,13.3032,4.60140,2470.553,2022-12-14T23:54:39Z
2022-12-14T21:51:52Z,42.805,6.029,13.3014,4.60150,2470.577,2022-12-14T23:57:42Z
2022-12-14T21:54:55Z,42.805,6.029,13.3016,4.60147,2470.591,2022-12-15T00:00:45Z
2022-12-14T21:57:58Z,42.805,6.029,13.3015,4.60163,2470.591,2022-12-15T00:03:48Z
2022-12-14T22:01:01Z,42.805,6.029,13.3011,4.60174,2470.553,2022-12-15T00:06:51Z
2022-12-14T22:04:04Z,42.805,6.029,13.3015,4.60160,2470.567,2022-12-15T00:09:55Z
2022-12-14T22:07:07Z,42.805,6.029,13.3024,4.60143,2470.553,2022-12-15T00:12:58Z
2022-12-14T22:10:11Z,42.805,6.029,13.3036,4.60148,2470.577,2022-12-15T00:16:01Z
2022-12-14T22:13:14Z,42.805,6.029,13.3054,4.60135,2470.591,2022-12-15T00:19:04Z
2022-12-14T22:16:17Z,42.805,6.029,13.3030,4.60158,2470.577,2022-12-15T00:22:07Z
2022-12-14T22:19:20Z,42.805,6.029,13.3019,4.60134,2470.577,2022-12-15T00:25:10Z
2022-12-14T22:22:23Z,42.805,6.029,13.3015,4.60146,2470.591,2022-12-15T00:28:13Z
2022-12-14T22:25:26Z,42.805,6.029,13.3014,4.60198,2470.53,2022-12-15T00:31:16Z
2022-12-14T22:28:29Z,42.805,6.029,13.3008,4.60182,2470.577,2022-12-15T00:34:19Z
2022-12-14T22:31:32Z,42.805,6.029,13.3011,4.60161,2470.591,2022-12-15T00:37:22Z
2022-12-14T22:34:35Z,42.805,6.029,13.3014,4.60144,2470.544,2022-12-15T00:40:25Z
2022-12-14T22:37:38Z,42.805,6.029,13.3011,4.60155,2470.544,2022-12-15T00:43:29Z
2022-12-14T22:40:41Z,42.805,6.029,13.3008,4.60195,2470.577,2022-12-15T00:46:32Z
2022-12-14T22:43:44Z,42.805,6.029,13.3009,4.60144,2470.567,2022-12-15T00:49:35Z
2022-12-14T22:46:48Z,42.805,6.029,13.3011,4.60110,2470.553,2022-12-15T00:52:38Z
2022-12-14T22:49:51Z,42.805,6.029,13.3011,4.60137,2470.577,2022-12-15T00:55:41Z
2022-12-14T22:52:54Z,42.805,6.029,13.3010,4.60097,2470.577,2022-12-15T00:58:44Z
2022-12-14T22:55:57Z,42.805,6.029,13.3026,4.60114,2470.567,2022-12-15T01:01:47Z
2022-12-14T22:59:00Z,42.805,6.029,13.3013,4.60144,2470.553,2022-12-15T01:04:50Z
2022-12-14T23:02:03Z,42.805,6.029,13.3012,4.60128,2470.553,2022-12-15T01:07:53Z
2022-12-14T23:05:06Z,42.805,6.029,13.3015,4.60097,2470.567,2022-12-15T01:10:56Z
2022-12-14T23:08:09Z,42.805,6.029,13.3049,4.60174,2470.553,2022-12-15T01:13:59Z
2022-12-14T23:11:12Z,42.805,6.029,13.3014,4.60131,2470.591,2022-12-15T01:17:03Z
2022-12-14T23:14:15Z,42.805,6.029,13.3009,4.60115,2470.614,2022-12-15T01:20:06Z
2022-12-14T23:17:18Z,42.805,6.029,13.3014,4.60095,2470.553,2022-12-15T01:23:09Z
2022-12-14T23:20:22Z,42.805,6.029,13.3015,4.60115,2470.567,2022-12-15T01:26:12Z
2022-12-14T23:23:25Z,42.805,6.029,13.3009,4.60140,2470.553,2022-12-15T01:29:15Z
2022-12-14T23:26:28Z,42.805,6.029,13.3011,4.60112,2470.577,2022-12-15T01:32:18Z
2022-12-14T23:29:31Z,42.805,6.029,13.3013,4.60094,2470.53,2022-12-15T01:35:21Z
2022-12-14T23:32:34Z,42.805,6.029,13.3017,4.60107,2470.544,2022-12-15T01:38:24Z
2022-12-14T23:35:37Z,42.805,6.029,13.3078,4.60120,2470.544,2022-12-15T01:41:27Z
2022-12-14T23:38:40Z,42.805,6.029,13.3024,4.60142,2470.553,2022-12-15T01:44:30Z
2022-12-14T23:41:43Z,42.805,6.029,13.3035,4.60114,2470.604,2022-12-15T01:47:33Z
2022-12-14T23:44:46Z,42.805,6.029,13.3019,4.60101,2470.544,2022-12-15T01:50:36Z
2022-12-14T23:47:49Z,42.805,6.029,13.3009,4.60122,2470.553,2022-12-15T01:53:40Z
2022-12-14T23:50:52Z,42.805,6.029,13.3010,4.60104,2470.53,2022-12-15T01:56:43Z
2022-12-14T23:53:56Z,42.805,6.029,13.3009,4.60087,2470.553,2022-12-15T01:59:46Z
2022-12-14T23:56:59Z,42.805,6.029,13.3012,4.60080,2470.53,2022-12-15T02:02:49Z
